Time,TemperatureF,DewpointF,PressureIn,WindDirection,WindDirectionDegrees,WindSpeedMPH,WindSpeedGustMPH,Humidity,HourlyPrecipIn,Conditions,Clouds,dailyrainin,SoftwareType,DateUTC
2013-02-23 00:01:00,28.0,23.0,-100.00,South,169,12.0,15.0,80,0.00,,,-99.99,,2013-02-23 07:01:00,
2013-02-23 00:11:00,29.0,22.0,-100.00,South,178,9.0,13.0,77,0.00,,,-99.99,,2013-02-23 07:11:00,
2013-02-23 00:21:00,29.0,22.0,-100.00,SSE,165,11.0,16.0,76,0.00,,,-99.99,,2013-02-23 07:21:00,
2013-02-23 00:31:00,29.0,22.0,-100.00,SSE,165,11.0,16.0,76,0.00,,,-99.99,,2013-02-23 07:31:00,
2013-02-23 00:41:00,28.0,22.0,-100.00,South,176,14.0,17.0,78,0.00,,,-99.99,,2013-02-23 07:41:00,
2013-02-23 00:52:00,28.0,22.0,-100.00,South,171,13.0,17.0,77,0.00,,,-99.99,,2013-02-23 07:52:00,
2013-02-23 01:01:00,28.0,22.0,-100.00,South,171,13.0,17.0,77,0.00,,,-99.99,,2013-02-23 08:01:00,
2013-02-23 01:11:00,28.0,22.0,-100.00,SSE,164,12.0,15.0,77,0.00,,,-99.99,,2013-02-23 08:11:00,
2013-02-23 01:21:00,28.0,22.0,-100.00,SSE,164,12.0,15.0,77,0.00,,,-99.99,,2013-02-23 08:21:00,
2013-02-23 01:30:00,28.0,22.0,-100.00,SSE,157,11.0,15.0,77,0.00,,,-99.99,,2013-02-23 08:30:00,
2013-02-23 01:31:00,28.0,22.0,-100.00,SSE,164,12.0,15.0,77,0.00,,,-99.99,,2013-02-23 08:31:00,
2013-02-23 01:41:00,28.0,22.0,-100.00,SSE,151,12.0,15.0,78,0.00,,,-99.99,,2013-02-23 08:41:00,
2013-02-23 01:52:00,28.0,22.0,-100.00,SSE,157,11.0,15.0,77,0.00,,,-99.99,,2013-02-23 08:52:00,
2013-02-23 02:01:00,28.0,22.0,-100.00,SSE,157,11.0,15.0,77,0.00,,,-99.99,,2013-02-23 09:01:00,
2013-02-23 02:11:00,28.0,22.0,-100.00,SSE,157,11.0,15.0,77,0.00,,,-99.99,,2013-02-23 09:11:00,
2013-02-23 02:21:00,28.0,22.0,-100.00,SSE,157,11.0,15.0,77,0.00,,,-99.99,,2013-02-23 09:21:00,
2013-02-23 03:11:00,27.0,22.0,-100.00,SSE,147,10.0,13.0,81,0.00,,,-99.99,,2013-02-23 10:11:00,
2013-02-23 03:21:00,27.0,22.0,-100.00,SSE,147,10.0,13.0,81,0.00,,,-99.99,,2013-02-23 10:21:00,
2013-02-23 03:31:00,27.0,22.0,-100.00,SSE,147,10.0,13.0,81,0.00,,,-99.99,,2013-02-23 10:31:00,
2013-02-23 03:41:00,28.0,22.0,-100.00,South,172,15.0,19.0,79,0.00,,,-99.99,,2013-02-23 10:41:00,
2013-02-23 03:52:00,27.0,23.0,-100.00,South,172,14.0,17.0,82,0.04,,,-99.99,,2013-02-23 10:52:00,
2013-02-23 04:02:00,27.0,23.0,-100.00,South,172,14.0,17.0,82,0.04,,,-99.99,,2013-02-23 11:02:00,
2013-02-23 04:11:00,27.0,23.0,-100.00,South,174,13.0,17.0,84,0.04,,,-99.99,,2013-02-23 11:11:00,
2013-02-23 04:21:00,27.0,23.0,-100.00,South,171,11.0,13.0,87,0.08,,,-99.99,,2013-02-23 11:21:00,
2013-02-23 04:32:00,27.0,23.0,-100.00,South,171,11.0,13.0,87,0.08,,,-99.99,,2013-02-23 11:32:00,
2013-02-23 04:41:00,27.0,23.0,-100.00,South,171,11.0,13.0,87,0.08,,,-99.99,,2013-02-23 11:41:00,
2013-02-23 04:52:00,27.0,24.0,-100.00,South,171,13.0,16.0,87,0.08,,,-99.99,,2013-02-23 11:52:00,
2013-02-23 05:01:00,27.0,24.0,-100.00,South,171,13.0,16.0,87,0.08,,,-99.99,,2013-02-23 12:01:00,
2013-02-23 05:11:00,27.0,24.0,-100.00,SSE,160,16.0,19.0,88,0.00,,,-99.99,,2013-02-23 12:11:00,
2013-02-23 05:21:00,27.0,24.0,-100.00,SSE,152,12.0,15.0,87,0.00,,,-99.99,,2013-02-23 12:21:00,
2013-02-23 05:32:00,27.0,24.0,-100.00,SSE,152,12.0,15.0,87,0.00,,,-99.99,,2013-02-23 12:32:00,
2013-02-23 05:42:00,26.0,24.0,-100.00,SSE,155,13.0,17.0,89,0.08,,,-99.99,,2013-02-23 12:42:00,
2013-02-23 05:52:00,26.0,24.0,-100.00,SSE,164,11.0,15.0,89,0.00,,,-99.99,,2013-02-23 12:52:00,
2013-02-23 06:01:00,26.0,24.0,-100.00,SSE,164,11.0,15.0,89,0.00,,,-99.99,,2013-02-23 13:01:00,
2013-02-23 06:11:00,26.0,23.0,-100.00,SSE,162,12.0,15.0,85,0.00,,,-99.99,,2013-02-23 13:11:00,
2013-02-23 06:22:00,26.0,23.0,-100.00,SSE,164,14.0,18.0,87,0.00,,,-99.99,,2013-02-23 13:22:00,
2013-02-23 06:31:00,26.0,23.0,-100.00,SSE,164,14.0,18.0,87,0.00,,,-99.99,,2013-02-23 13:31:00,
2013-02-23 06:42:00,27.0,22.0,-100.00,South,172,14.0,19.0,81,0.00,,,-99.99,,2013-02-23 13:42:00,
2013-02-23 06:52:00,27.0,22.0,-100.00,SSW,193,12.0,15.0,83,0.00,,,-99.99,,2013-02-23 13:52:00,
2013-02-23 07:01:00,27.0,22.0,-100.00,SSW,193,12.0,15.0,83,0.00,,,-99.99,,2013-02-23 14:01:00,
2013-02-23 07:11:00,26.0,23.0,-100.00,South,185,11.0,13.0,89,0.08,,,-99.99,,2013-02-23 14:11:00,
2013-02-23 07:21:00,26.0,24.0,-100.00,SE,143,7.0,9.0,91,0.04,,,-99.99,,2013-02-23 14:21:00,
2013-02-23 07:32:00,26.0,24.0,-100.00,SE,143,7.0,9.0,91,0.04,,,-99.99,,2013-02-23 14:32:00,
2013-02-23 07:41:00,26.0,24.0,-100.00,SSE,164,14.0,20.0,91,0.24,,,-99.99,,2013-02-23 14:41:00,
2013-02-23 07:52:00,26.0,24.0,-100.00,SSE,167,12.0,15.0,93,0.16,,,-99.99,,2013-02-23 14:52:00,
2013-02-23 08:01:00,26.0,24.0,-100.00,SSE,167,12.0,15.0,93,0.16,,,-99.99,,2013-02-23 15:01:00,
2013-02-23 08:11:00,26.0,24.0,-100.00,SSE,147,10.0,12.0,93,0.04,,,-99.99,,2013-02-23 15:11:00,
2013-02-23 08:21:00,26.0,25.0,-100.00,SSE,152,11.0,15.0,93,0.00,,,-99.99,,2013-02-23 15:21:00,
2013-02-23 08:31:00,26.0,25.0,-100.00,SSE,152,11.0,15.0,93,0.00,,,-99.99,,2013-02-23 15:31:00,
2013-02-23 08:41:00,27.0,25.0,-100.00,South,174,12.0,15.0,92,0.00,,,-99.99,,2013-02-23 15:41:00,
2013-02-23 08:52:00,27.0,24.0,-100.00,South,186,16.0,19.0,89,0.00,,,-99.99,,2013-02-23 15:52:00,
2013-02-23 09:01:00,27.0,24.0,-100.00,South,186,16.0,19.0,89,0.00,,,-99.99,,2013-02-23 16:01:00,
2013-02-23 09:11:00,28.0,24.0,-100.00,South,171,11.0,15.0,86,0.04,,,-99.99,,2013-02-23 16:11:00,
2013-02-23 09:21:00,28.0,24.0,-100.00,SSE,161,8.0,12.0,84,0.00,,,-99.99,,2013-02-23 16:21:00,
2013-02-23 09:31:00,28.0,24.0,-100.00,SSE,161,8.0,12.0,84,0.00,,,-99.99,,2013-02-23 16:31:00,
2013-02-23 09:42:00,28.0,23.0,-100.00,SSE,161,8.0,10.0,82,0.00,,,-99.99,,2013-02-23 16:42:00,
2013-02-23 09:52:00,28.0,23.0,-100.00,SSE,161,8.0,10.0,82,0.00,,,-99.99,,2013-02-23 16:52:00,
2013-02-23 10:01:00,28.0,23.0,-100.00,SSE,161,8.0,10.0,82,0.00,,,-99.99,,2013-02-23 17:01:00,
2013-02-23 10:11:00,30.0,21.0,-100.00,SW,236,16.0,23.0,68,0.00,,,-99.99,,2013-02-23 17:11:00,
2013-02-23 10:21:00,29.0,19.0,-100.00,WNW,284,13.0,18.0,67,0.04,,,-99.99,,2013-02-23 17:21:00,
2013-02-23 10:31:00,29.0,19.0,-100.00,WNW,284,13.0,18.0,67,0.04,,,-99.99,,2013-02-23 17:31:00,
2013-02-23 10:41:00,29.0,18.0,-100.00,WNW,301,13.0,17.0,62,0.00,,,-99.99,,2013-02-23 17:41:00,
2013-02-23 10:52:00,29.0,17.0,-100.00,WNW,282,17.0,28.0,60,0.00,,,-99.99,,2013-02-23 17:52:00,
2013-02-23 11:01:00,29.0,17.0,-100.00,WNW,282,17.0,28.0,60,0.00,,,-99.99,,2013-02-23 18:01:00,
2013-02-23 11:12:00,29.0,17.0,-100.00,WNW,282,17.0,28.0,60,0.00,,,-99.99,,2013-02-23 18:12:00,
2013-02-23 11:21:00,27.0,17.0,-100.00,West,263,15.0,19.0,66,0.00,,,-99.99,,2013-02-23 18:21:00,
2013-02-23 11:31:00,27.0,17.0,-100.00,West,263,15.0,19.0,66,0.00,,,-99.99,,2013-02-23 18:31:00,
2013-02-23 11:42:00,27.0,18.0,-100.00,WSW,258,14.0,19.0,68,0.04,,,-99.99,,2013-02-23 18:42:00,
2013-02-23 11:52:00,27.0,18.0,-100.00,WSW,258,14.0,19.0,68,0.04,,,-99.99,,2013-02-23 18:52:00,
2013-02-23 12:01:00,27.0,18.0,-100.00,WSW,258,14.0,19.0,68,0.04,,,-99.99,,2013-02-23 19:01:00,
2013-02-23 12:11:00,27.0,18.0,-100.00,NE,56,2.0,5.0,72,0.00,,,-99.99,,2013-02-23 19:11:00,
2013-02-23 12:21:00,27.0,18.0,-100.00,West,267,5.0,9.0,69,0.00,,,-99.99,,2013-02-23 19:21:00,
2013-02-23 12:32:00,27.0,18.0,-100.00,West,267,5.0,9.0,69,0.00,,,-99.99,,2013-02-23 19:32:00,
2013-02-23 12:41:00,27.0,19.0,-100.00,North,6,4.0,7.0,72,0.00,,,-99.99,,2013-02-23 19:41:00,
2013-02-23 12:52:00,27.0,18.0,-100.00,SE,128,10.0,15.0,70,0.00,,,-99.99,,2013-02-23 19:52:00,
2013-02-23 13:01:00,27.0,18.0,-100.00,SE,128,10.0,15.0,70,0.00,,,-99.99,,2013-02-23 20:01:00,
2013-02-23 13:11:00,27.0,19.0,-100.00,ESE,110,6.0,8.0,69,0.00,,,-99.99,,2013-02-23 20:11:00,
2013-02-23 13:21:00,27.0,19.0,-100.00,ESE,117,8.0,9.0,70,0.00,,,-99.99,,2013-02-23 20:21:00,
2013-02-23 13:31:00,27.0,19.0,-100.00,ESE,117,8.0,9.0,70,0.00,,,-99.99,,2013-02-23 20:31:00,
2013-02-23 13:41:00,27.0,19.0,-100.00,ESE,117,8.0,9.0,70,0.00,,,-99.99,,2013-02-23 20:41:00,
2013-02-23 13:52:00,27.0,19.0,-100.00,ESE,123,6.0,9.0,71,0.00,,,-99.99,,2013-02-23 20:52:00,
2013-02-23 14:01:00,27.0,19.0,-100.00,ESE,123,6.0,9.0,71,0.00,,,-99.99,,2013-02-23 21:01:00,
2013-02-23 14:11:00,27.0,18.0,-100.00,NE,44,5.0,7.0,68,0.00,,,-99.99,,2013-02-23 21:11:00,
2013-02-23 14:22:00,27.0,18.0,-100.00,NE,44,5.0,7.0,68,0.00,,,-99.99,,2013-02-23 21:22:00,
2013-02-23 14:31:00,27.0,18.0,-100.00,NE,44,5.0,7.0,68,0.00,,,-99.99,,2013-02-23 21:31:00,
2013-02-23 14:41:00,27.0,19.0,-100.00,NNE,31,5.0,9.0,71,0.04,,,-99.99,,2013-02-23 21:41:00,
2013-02-23 14:52:00,27.0,20.0,-100.00,ENE,64,5.0,7.0,76,0.00,,,-99.99,,2013-02-23 21:52:00,
2013-02-23 15:01:00,27.0,20.0,-100.00,ENE,64,5.0,7.0,76,0.00,,,-99.99,,2013-02-23 22:01:00,
2013-02-23 15:11:00,27.0,20.0,-100.00,ENE,64,5.0,7.0,76,0.00,,,-99.99,,2013-02-23 22:11:00,
2013-02-23 15:21:00,27.0,22.0,-100.00,NE,35,4.0,5.0,82,0.04,,,-99.99,,2013-02-23 22:21:00,
2013-02-23 15:31:00,27.0,22.0,-100.00,NE,35,4.0,5.0,82,0.04,,,-99.99,,2013-02-23 22:31:00,
2013-02-23 15:42:00,26.0,21.0,-100.00,WNW,301,8.0,11.0,81,0.00,,,-99.99,,2013-02-23 22:42:00,
2013-02-23 15:52:00,26.0,21.0,-100.00,WNW,301,8.0,11.0,81,0.00,,,-99.99,,2013-02-23 22:52:00,
2013-02-23 16:01:00,26.0,21.0,-100.00,WNW,301,8.0,11.0,81,0.00,,,-99.99,,2013-02-23 23:01:00,
2013-02-23 16:11:00,28.0,18.0,-100.00,WNW,296,8.0,12.0,67,0.00,,,-99.99,,2013-02-23 23:11:00,
2013-02-23 16:21:00,27.0,22.0,-100.00,North,7,10.0,12.0,81,0.00,,,-99.99,,2013-02-23 23:21:00,
2013-02-23 16:31:00,27.0,22.0,-100.00,North,7,10.0,12.0,81,0.00,,,-99.99,,2013-02-23 23:31:00,
2013-02-23 16:42:00,27.0,22.0,-100.00,NNW,347,13.0,15.0,83,0.00,,,-99.99,,2013-02-23 23:42:00,
2013-02-23 16:52:00,26.0,22.0,-100.00,North,1,12.0,15.0,85,0.00,,,-99.99,,2013-02-23 23:52:00,
2013-02-23 17:01:00,26.0,22.0,-100.00,North,1,12.0,15.0,85,0.00,,,-99.99,,2013-02-24 00:01:00,
2013-02-23 17:11:00,26.0,22.0,-100.00,NNW,346,9.0,11.0,84,0.00,,,-99.99,,2013-02-24 00:11:00,
2013-02-23 17:22:00,26.0,22.0,-100.00,NNW,346,9.0,11.0,84,0.00,,,-99.99,,2013-02-24 00:22:00,
2013-02-23 17:31:00,26.0,22.0,-100.00,NNW,346,9.0,11.0,84,0.00,,,-99.99,,2013-02-24 00:31:00,
2013-02-23 17:42:00,25.0,22.0,-100.00,North,356,11.0,14.0,89,0.00,,,-99.99,,2013-02-24 00:42:00,
2013-02-23 17:52:00,25.0,21.0,-100.00,NNE,14,8.0,9.0,84,0.00,,,-99.99,,2013-02-24 00:52:00,
2013-02-23 18:01:00,25.0,21.0,-100.00,NNE,14,8.0,9.0,84,0.00,,,-99.99,,2013-02-24 01:01:00,
2013-02-23 18:11:00,25.0,20.0,-100.00,NNW,340,10.0,12.0,78,0.00,,,-99.99,,2013-02-24 01:11:00,
2013-02-23 18:22:00,25.0,19.0,-100.00,North,356,6.0,7.0,76,0.00,,,-99.99,,2013-02-24 01:22:00,
2013-02-23 18:31:00,25.0,19.0,-100.00,North,356,6.0,7.0,76,0.00,,,-99.99,,2013-02-24 01:31:00,
2013-02-23 18:41:00,25.0,19.0,-100.00,North,356,6.0,7.0,76,0.00,,,-99.99,,2013-02-24 01:41:00,
2013-02-23 18:52:00,25.0,17.0,-100.00,NNE,23,10.0,12.0,72,0.00,,,-99.99,,2013-02-24 01:52:00,
2013-02-23 19:01:00,25.0,17.0,-100.00,NNE,23,10.0,12.0,72,0.00,,,-99.99,,2013-02-24 02:01:00,
2013-02-23 19:11:00,25.0,17.0,-100.00,NNE,23,10.0,12.0,72,0.00,,,-99.99,,2013-02-24 02:11:00,
2013-02-23 19:21:00,24.0,18.0,-100.00,North,3,7.0,9.0,77,0.00,,,-99.99,,2013-02-24 02:21:00,
2013-02-23 19:31:00,24.0,18.0,-100.00,North,3,7.0,9.0,77,0.00,,,-99.99,,2013-02-24 02:31:00,
2013-02-23 19:41:00,24.0,17.0,-100.00,NNW,332,5.0,6.0,75,0.00,,,-99.99,,2013-02-24 02:41:00,
2013-02-23 19:52:00,22.0,16.0,-100.00,North,360,6.0,7.0,77,0.00,,,-99.99,,2013-02-24 02:52:00,
2013-02-23 20:01:00,22.0,16.0,-100.00,North,360,6.0,7.0,77,0.00,,,-99.99,,2013-02-24 03:01:00,
2013-02-23 20:11:00,21.0,16.0,-100.00,NW,316,6.0,7.0,80,0.00,,,-99.99,,2013-02-24 03:11:00,
2013-02-23 20:21:00,21.0,15.0,-100.00,NW,319,6.0,7.0,80,0.00,,,-99.99,,2013-02-24 03:21:00,
2013-02-23 20:31:00,21.0,15.0,-100.00,NW,319,6.0,7.0,80,0.00,,,-99.99,,2013-02-24 03:31:00,
2013-02-23 20:42:00,18.0,12.0,-100.00,North,356,2.0,4.0,77,0.00,,,-99.99,,2013-02-24 03:42:00,
2013-02-23 20:52:00,17.0,13.0,-100.00,WNW,298,5.0,6.0,84,0.00,,,-99.99,,2013-02-24 03:52:00,
2013-02-23 21:01:00,17.0,13.0,-100.00,WNW,298,5.0,6.0,84,0.00,,,-99.99,,2013-02-24 04:01:00,
2013-02-23 21:11:00,15.0,11.0,-100.00,North,356,0.0,2.0,82,0.00,,,-99.99,,2013-02-24 04:11:00,
2013-02-23 21:21:00,15.0,11.0,-100.00,North,356,0.0,2.0,82,0.00,,,-99.99,,2013-02-24 04:21:00,
2013-02-23 21:31:00,15.0,11.0,-100.00,North,356,0.0,2.0,82,0.00,,,-99.99,,2013-02-24 04:31:00,
2013-02-23 21:41:00,14.0,11.0,-100.00,North,7,3.0,4.0,88,0.00,,,-99.99,,2013-02-24 04:41:00,
2013-02-23 21:52:00,14.0,11.0,-100.00,North,1,2.0,4.0,88,0.00,,,-99.99,,2013-02-24 04:52:00,
2013-02-23 22:01:00,14.0,11.0,-100.00,North,1,2.0,4.0,88,0.00,,,-99.99,,2013-02-24 05:01:00,
2013-02-23 22:11:00,12.0,10.0,-100.00,NW,305,4.0,4.0,89,0.00,,,-99.99,,2013-02-24 05:11:00,
2013-02-23 22:21:00,13.0,11.0,-100.00,SSE,164,2.0,3.0,88,0.00,,,-99.99,,2013-02-24 05:21:00,
2013-02-23 22:32:00,13.0,11.0,-100.00,SSE,164,2.0,3.0,88,0.00,,,-99.99,,2013-02-24 05:32:00,
2013-02-23 22:41:00,12.0,9.0,-100.00,WSW,239,4.0,5.0,86,0.00,,,-99.99,,2013-02-24 05:41:00,
2013-02-23 22:52:00,12.0,9.0,-100.00,East,79,2.0,3.0,87,0.00,,,-99.99,,2013-02-24 05:52:00,
2013-02-23 23:01:00,12.0,9.0,-100.00,East,79,2.0,3.0,87,0.00,,,-99.99,,2013-02-24 06:01:00,
2013-02-23 23:11:00,14.0,11.0,-100.00,ESE,117,2.0,3.0,89,0.00,,,-99.99,,2013-02-24 06:11:00,
2013-02-23 23:21:00,11.0,8.0,-100.00,WSW,237,4.0,4.0,87,0.00,,,-99.99,,2013-02-24 06:21:00,
2013-02-23 23:31:00,11.0,8.0,-100.00,WSW,237,4.0,4.0,87,0.00,,,-99.99,,2013-02-24 06:31:00,
2013-02-23 23:41:00,11.0,7.0,-100.00,WSW,250,2.0,2.0,86,0.00,,,-99.99,,2013-02-24 06:41:00,
2013-02-23 23:52:00,11.0,8.0,-100.00,ESE,119,3.0,4.0,87,0.00,,,-99.99,,2013-02-24 06:52:00,